Location: ??????
(56.0120°N, 39.1740°E)
Time: 11:21:52
(UTC+00:00)

Cosmos 2218 Rocket - Pass Details

Date: 14 April 2026
Orbit: 955 x 1005 km, 82.9° (Epoch: 10 May)

Event Time Altitude Azimuth Distance (km) Brightness Sun altitude
Rises 17:54:56 0° 183° (S) 3,627 6.7 -11.5°
Reaches altitude 10° 17:57:25 10° 182° (S) 2,683 6.0 -11.8°
Maximum altitude 18:03:32 76° 98° (E) 990 3.9 -12.5°
Drops below altitude 10° 18:09:42 10° 14° (NNE) 2,705 6.7 -13.1°
Sets 18:12:13 0° 13° (NNE) 3,659 7.4 -13.4°
